Location: Hampton Plantation State Historic Site
(33.1998°N, 79.4353°W)
Time: 12:24:38
(UTC-05:00)

ISS - Visible Passes

Search period start: 02 December 2020 00:00
Search period end: 12 December 2020 00:00
Orbit: 418 x 420 km, 51.6° (Epoch: 02 December)

Date Brightness Start Highest point End Pass type
(mag) Time Alt. Az. Time Alt. Az. Time Alt. Az.
06 Dec -2.3 18:35:00 10° NNW 18:36:59 24° N 18:36:59 24° N visible
07 Dec -2.1 17:47:49 10° NNW 17:50:14 18° NNE 17:52:13 12° ENE visible
07 Dec -1.2 19:23:59 10° WNW 19:25:15 20° WNW 19:25:15 20° WNW visible
08 Dec -3.8 18:36:14 10° NW 18:39:36 80° SW 18:40:53 34° SE visible
09 Dec -3.6 17:48:40 10° NW 17:51:58 51° NE 17:55:14 10° ESE visible
09 Dec -0.4 19:27:24 10° WSW 19:28:23 11° SW 19:29:21 10° SW visible
10 Dec -1.0 18:38:20 10° WNW 18:40:55 21° SW 18:43:29 10° S visible
11 Dec -2.2 17:50:13 10° WNW 17:53:23 39° SW 17:56:32 10° SSE visible
